Temperature
9 9 9 9 9 8 7 6 6 6 6 5 2 1 0 -0 -1 -2 -3 -3 -3 -3 -4 -5 -6 -7 -8 -8 -9 -9 -10 -11 -12 -12 -13 -13 -13 -13 -13 -13 -13 -13 -13 -13
8 9 8 8 8 7 7 6 6 6 5 4 2 1 -0 -1 -2 -2 -2 -3 -3 -4 -4 -5 -6 -7 -8 -8 -9 -9 -10 -11 -12 -12 -13 -13 -13 -13 -13 -13 -13 -13 -12 -12
7 6 8 9 9 7 6 6 6 6 5 1 -0 -1 -1 -1 -2 -2 -2 -3 -3 -4 -5 -5 -6 -7 -8 -8 -8 -9 -10 -11 -12 -12 -13 -13 -13 -13 -13 -13 -13 -13 -12 -12
5 7 11 11 8 7 7 7 6 6 3 2 1 0 -0 -1 -1 -2 -2 -3 -3 -4 -5 -6 -6 -7 -7 -8 -8 -9 -10 -11 -12 -12 -13 -13 -13 -13 -13 -13 -13 -13 -12 -12
5 7 7 9 8 7 7 6 6 4 2 1 -0 -2 -3 -2 -2 -2 -2 -3 -4 -4 -5 -6 -6 -7 -7 -7 -8 -9 -10 -11 -11 -12 -13 -13 -13 -13 -13 -13 -13 -13 -13 -12
4 7 9 11 8 8 7 6 6 4 1 -2 -2 -2 -2 -2 -2 -2 -3 -3 -4 -4 -5 -5 -6 -6 -7 -7 -8 -9 -10 -10 -11 -12 -12 -13 -13 -13 -13 -13 -13 -13 -13 -13
4 5 7 8 7 7 7 8 7 5 3 0 -0 0 1 -1 -2 -2 -3 -3 -4 -4 -5 -5 -6 -6 -7 -7 -8 -9 -9 -10 -11 -12 -12 -13 -13 -13 -13 -13 -13 -13 -13 -13
3 3 7 7 5 5 7 8 8 6 5 3 3 2 0 -1 -2 -2 -3 -4 -4 -4 -5 -5 -6 -6 -6 -7 -8 -8 -9 -9 -10 -11 -12 -12 -12 -13 -13 -13 -13 -13 -13 -13
5 9 10 9 10 10 9 8 7 7 5 4 3 1 -0 -1 -2 -2 -3 -4 -4 -4 -5 -5 -6 -6 -6 -7 -7 -8 -8 -9 -10 -11 -11 -12 -12 -13 -13 -13 -13 -13 -13 -13
5 7 9 9 10 9 8 8 7 6 5 4 3 1 -0 -1 -2 -2 -3 -3 -4 -4 -5 -5 -6 -6 -6 -7 -7 -8 -8 -9 -9 -10 -11 -11 -12 -12 -13 -13 -13 -13 -13 -13
5 6 8 10 11 10 8 7 6 5 4 3 2 1 -0 -1 -2 -2 -3 -3 -4 -4 -4 -5 -5 -6 -6 -7 -7 -7 -8 -8 -9 -10 -10 -10 -11 -12 -12 -13 -13 -13 -13 -13
10 12 10 13 13 10 8 6 6 5 3 2 2 1 -0 -1 -2 -2 -3 -3 -4 -4 -4 -5 -5 -6 -6 -7 -7 -7 -8 -8 -9 -10 -10 -10 -10 -10 -11 -12 -12 -13 -13 -13
15 14 13 12 11 10 8 7 5 5 4 3 1 0 -0 -1 -2 -2 -3 -3 -4 -4 -4 -5 -5 -6 -6 -6 -7 -7 -7 -8 -8 -9 -10 -10 -10 -10 -10 -10 -11 -11 -12 -12
14 12 10 11 10 9 7 6 5 4 3 2 1 0 -1 -1 -2 -2 -3 -3 -3 -4 -4 -4 -5 -5 -6 -6 -6 -6 -7 -7 -8 -9 -9 -10 -10 -10 -11 -11 -10 -11 -11 -11
13 12 11 10 9 8 6 5 4 3 2 1 0 -0 -1 -1 -2 -2 -3 -3 -3 -4 -4 -4 -5 -5 -5 -6 -6 -6 -6 -7 -7 -8 -8 -9 -9 -10 -10 -10 -10 -10 -10 -11
13 11 9 9 8 7 6 4 3 3 2 2 1 0 -1 -1 -2 -2 -3 -3 -3 -3 -4 -4 -4 -5 -5 -5 -5 -6 -6 -6 -7 -7 -7 -8 -8 -9 -10 -10 -10 -10 -11 -11
11 10 8 7 7 7 6 6 5 4 3 2 1 0 -1 -2 -2 -2 -3 -3 -3 -3 -4 -4 -4 -4 -5 -5 -5 -5 -5 -5 -6 -6 -6 -7 -7 -8 -9 -10 -10 -10 -11 -11
14 13 12 11 10 8 7 5 4 4 3 2 1 -0 -1 -1 -1 -2 -2 -3 -3 -3 -3 -4 -4 -4 -4 -5 -5 -5 -5 -5 -5 -6 -6 -6 -7 -7 -8 -9 -10 -10 -11 -11
15 13 11 9 9 8 7 6 5 4 3 2 1 0 -0 -1 -1 -2 -3 -3 -3 -3 -3 -4 -4 -4 -4 -4 -5 -5 -5 -5 -5 -5 -6 -6 -6 -7 -7 -8 -9 -10 -11 -11
15 13 11 9 8 7 7 6 5 4 3 2 1 0 -1 -1 -2 -2 -2 -3 -3 -3 -3 -4 -4 -4 -4 -4 -5 -5 -5 -5 -5 -5 -6 -6 -6 -6 -7 -7 -8 -9 -10 -11
16 14 11 9 8 7 6 6 5 4 3 2 1 1 -0 -1 -2 -2 -2 -2 -3 -3 -3 -4 -4 -4 -4 -4 -5 -5 -5 -5 -5 -6 -6 -6 -6 -7 -7 -7 -8 -9 -10 -10
15 14 12 9 8 7 6 5 5 4 3 2 1 0 -1 -1 -2 -2 -2 -2 -3 -3 -3 -4 -4 -4 -4 -4 -5 -5 -5 -5 -6 -6 -6 -6 -7 -7 -7 -7 -8 -8 -9 -10
15 14 12 10 8 7 6 5 4 3 3 2 2 1 0 -1 -1 -2 -2 -2 -3 -3 -3 -4 -4 -4 -4 -5 -5 -5 -5 -6 -6 -6 -6 -7 -7 -7 -7 -8 -8 -8 -9 -9
14 13 11 9 7 6 6 5 4 3 2 2 1 1 0 -1 -1 -2 -2 -3 -3 -3 -3 -4 -4 -4 -4 -5 -5 -5 -6 -6 -6 -6 -7 -7 -7 -7 -8 -8 -8 -8 -9 -9
14 12 11 9 7 7 6 5 4 3 2 1 1 0 -0 -1 -1 -1 -2 -3 -3 -3 -3 -4 -4 -4 -5 -5 -5 -5 -6 -6 -6 -7 -7 -7 -7 -8 -8 -8 -8 -9 -9 -9
13 12 11 10 9 7 6 5 4 3 2 2 1 0 -0 -1 -2 -2 -3 -3 -4 -4 -4 -4 -4 -4 -5 -5 -5 -6 -6 -6 -7 -7 -7 -7 -8 -8 -8 -8 -9 -9 -9 -9
12 11 10 8 7 6 5 5 4 3 3 2 2 1 1 -0 -1 -2 -3 -3 -4 -4 -4 -4 -4 -4 -5 -5 -5 -6 -6 -6 -7 -7 -7 -8 -8 -8 -8 -9 -9 -9 -9 -9
Wind_Speed
8 7 5 7 8 8 9 9 10 9 7 9 12 12 10 8 7 5 3 1 4 5 6 7 8 8 9 10 11 12 12 13 13 13 13 13 13 13 13 13 15 15 16 17
6 3 5 6 9 8 9 7 10 10 10 3 8 8 8 8 7 5 3 1 4 5 7 8 8 8 10 10 11 11 11 12 13 14 14 13 13 13 14 14 15 15 16 18
6 8 8 8 7 8 7 9 9 9 8 9 7 11 11 9 8 6 3 1 3 4 5 6 7 8 9 10 10 10 11 12 13 13 13 13 14 14 14 13 13 14 15 17
4 8 5 7 2 6 8 9 9 7 6 11 8 7 6 7 8 7 4 2 1 3 5 5 6 7 8 9 9 10 10 11 12 12 12 12 12 12 12 10 11 12 13 15
1 4 10 9 5 6 7 9 8 9 8 8 11 7 2 5 7 7 5 4 1 1 2 5 7 8 8 8 9 9 10 11 12 11 12 12 12 12 9 9 9 11 12 14
4 2 6 7 3 3 3 7 6 11 13 12 12 5 6 9 8 7 6 4 2 1 3 5 7 7 7 8 9 10 11 11 11 11 11 10 11 10 8 8 10 11 12 12
5 6 10 7 5 6 2 8 5 11 13 15 11 6 8 12 8 7 6 5 3 2 3 5 6 6 7 8 9 10 10 10 10 11 10 9 10 8 9 10 10 10 11 11
5 4 10 7 9 10 10 3 7 9 10 10 8 10 12 11 9 8 6 4 3 2 3 5 6 6 7 8 8 9 9 9 9 9 9 11 9 9 9 8 8 8 8 9
11 11 6 11 11 7 6 8 8 9 8 11 11 10 10 9 9 8 6 4 2 1 3 5 5 5 5 7 8 8 9 9 8 9 8 8 8 8 8 8 6 7 7 8
8 13 9 11 9 6 8 8 8 8 11 12 12 11 10 10 9 7 6 4 3 1 2 4 6 6 5 7 7 7 8 8 8 7 8 8 7 7 7 7 6 6 7 7
9 10 7 8 11 10 8 8 9 9 9 12 15 12 11 10 9 8 6 4 3 1 1 4 5 6 6 7 7 7 8 8 8 8 7 7 8 7 9 6 10 8 5 5
11 11 9 8 8 13 12 11 13 12 10 10 12 13 12 10 9 8 6 5 3 3 2 3 4 5 6 6 6 6 7 7 6 6 7 7 7 8 13 14 17 17 15 13
8 4 6 3 7 13 13 14 14 13 14 12 10 11 12 9 8 7 6 6 5 4 3 2 3 5 6 6 6 6 6 7 6 7 6 7 8 8 10 12 16 16 16 16
7 6 4 6 8 11 11 12 11 10 9 12 11 10 10 8 7 8 8 7 5 4 3 2 3 5 6 6 6 6 7 8 8 5 6 6 7 7 7 9 11 10 13 15
11 10 8 7 9 10 11 12 12 11 11 10 9 11 12 11 10 9 8 6 5 4 4 3 3 5 5 6 6 7 6 6 6 5 6 6 7 7 7 9 9 10 9 11
8 7 8 9 14 15 13 14 15 16 14 12 12 12 11 10 9 8 7 7 6 5 5 4 4 5 6 6 6 5 5 10 9 6 6 7 7 7 8 9 9 9 10 10
11 10 11 11 15 16 18 17 18 18 16 16 15 12 11 10 8 8 8 7 6 6 5 5 5 4 6 6 6 5 5 6 11 7 6 6 6 6 7 8 9 10 10 13
17 15 16 15 19 19 18 15 15 17 16 15 13 13 14 14 13 11 9 7 5 5 6 6 5 5 5 6 4 3 4 4 5 5 6 6 6 6 7 8 9 10 10 12
14 14 14 15 17 19 18 18 17 16 14 15 17 16 14 13 10 9 8 8 7 7 6 6 6 4 4 6 3 1 3 4 5 5 5 9 8 7 7 8 9 10 10 11
14 13 13 13 14 15 15 15 15 15 15 16 15 14 12 11 10 9 9 8 8 6 5 6 5 4 5 5 2 1 3 4 5 5 6 6 7 7 8 9 10 10 10 11
15 14 14 15 15 14 16 17 18 17 16 17 17 17 16 12 11 10 8 8 7 8 7 8 5 4 4 4 1 1 2 3 4 4 5 6 7 7 8 9 10 10 11 11
15 16 16 15 16 15 14 15 16 17 17 16 15 13 13 12 12 10 8 7 5 11 8 5 4 7 7 4 2 1 1 2 3 4 4 5 6 7 8 9 9 10 11 11
13 14 16 16 16 14 13 14 15 17 18 18 18 17 16 14 12 11 10 9 6 11 9 6 8 10 8 5 3 2 2 2 3 3 4 5 5 6 7 9 9 9 10 11
14 14 13 12 13 14 16 15 14 13 14 14 15 15 15 12 10 9 4 10 17 15 9 10 13 12 9 4 4 3 3 3 3 3 4 4 5 5 6 7 8 9 10 12
14 14 15 16 17 15 14 14 12 10 11 9 10 11 11 10 9 10 9 8 15 15 8 11 15 13 7 4 5 4 4 4 3 3 3 4 5 5 6 7 8 9 10 10
13 14 14 13 12 11 12 13 12 12 12 11 11 11 10 8 7 7 9 10 11 13 9 7 6 8 5 5 5 5 4 4 3 3 3 4 5 5 6 7 9 9 10 12
10 10 9 8 9 11 12 13 14 14 14 14 12 12 12 11 10 10 10 10 10 9 8 7 7 6 6 5 5 5 5 5 5 4 4 4 5 5 7 9 10 12 13 15
Wind_Direction
263 279 270 245 232 206 198 203 219 245 241 229 194 178 171 166 166 169 176 9 3 356 348 344 345 342 339 335 336 337 335 335 334 331 330 329 330 332 333 336 340 337 336 333
296 325 311 268 247 224 224 221 237 258 263 201 132 131 151 168 173 179 180 42 7 356 348 345 342 337 335 333 334 334 333 332 332 335 336 336 337 341 342 343 341 341 341 340
293 319 337 297 243 195 215 217 207 229 230 145 153 170 175 179 180 177 161 93 12 348 336 333 332 329 329 328 329 332 331 331 334 336 338 338 343 346 345 342 342 343 342 346
313 351 303 256 183 198 223 245 218 215 175 169 158 145 151 165 171 171 157 132 359 336 331 329 325 326 325 326 329 331 332 334 337 339 339 339 343 345 341 339 343 343 341 348
93 297 279 292 231 202 214 272 211 184 153 126 119 104 174 187 170 169 158 149 157 330 319 323 328 328 330 331 332 335 339 340 339 340 341 343 347 344 339 337 341 344 347 349
143 241 260 259 167 129 85 280 211 164 157 154 149 169 219 178 163 156 145 135 119 35 349 342 332 333 338 337 340 344 341 339 339 343 342 343 344 339 337 338 346 349 349 351
187 233 265 249 155 129 191 262 173 162 162 166 183 188 152 149 153 152 142 132 111 68 10 332 325 336 344 340 343 336 335 337 341 342 339 345 340 335 336 344 344 345 346 348
165 214 260 191 147 188 218 140 149 156 155 154 143 126 139 149 153 151 144 135 113 66 2 328 330 343 344 340 329 329 334 338 338 339 344 352 335 334 336 338 337 339 344 349
194 223 242 176 200 205 157 163 167 155 148 138 140 151 155 157 157 155 153 150 136 82 356 333 335 339 338 324 326 333 337 336 332 336 337 339 332 333 337 340 339 346 347 349
246 262 248 221 228 199 180 174 162 149 148 151 153 158 159 160 161 161 161 159 159 99 15 339 329 332 320 316 326 334 335 331 331 335 337 334 339 342 341 339 340 343 345 342
254 270 286 253 218 192 167 145 138 137 149 155 151 158 164 165 167 168 164 164 167 162 289 309 318 322 321 322 328 333 329 327 330 340 332 332 340 338 342 331 350 351 334 326
233 226 205 235 205 171 160 163 158 147 145 152 158 162 162 165 166 165 167 172 182 206 253 297 313 314 314 315 321 329 333 330 324 329 335 336 330 333 345 351 351 353 351 350
223 199 194 237 170 169 169 165 162 158 157 160 160 159 158 158 164 165 171 184 195 209 238 272 302 308 309 310 317 327 327 323 318 333 331 332 334 334 333 337 344 348 348 346
204 150 183 185 180 170 157 152 146 138 145 154 153 153 153 149 159 175 187 193 198 210 220 240 288 298 301 305 317 325 324 325 330 315 317 320 320 322 324 328 331 331 336 338
207 196 193 163 146 145 143 143 145 149 149 151 154 159 163 166 176 186 188 189 194 202 208 234 276 289 296 305 318 322 324 318 315 314 317 319 319 323 326 328 330 327 327 330
171 154 147 153 163 162 159 162 168 170 168 167 170 174 175 172 171 173 182 186 187 204 214 229 258 275 293 302 314 315 318 334 340 333 325 325 325 329 333 333 333 332 332 327
159 178 179 181 181 181 183 182 179 175 173 177 180 171 161 160 168 185 194 195 199 212 220 225 242 273 293 299 302 306 312 325 343 338 323 319 320 329 331 332 333 334 332 332
200 191 183 184 186 188 189 183 176 174 178 180 166 164 172 180 188 192 187 180 194 226 235 223 232 260 279 292 292 300 313 316 320 321 323 327 339 334 331 332 334 334 334 336
200 188 184 183 183 184 185 183 180 177 169 164 169 179 186 190 186 175 167 176 196 219 226 210 230 248 278 293 321 300 322 324 328 329 327 341 346 334 337 337 336 334 336 341
193 183 179 178 175 177 181 178 171 170 171 170 172 176 184 189 180 172 174 196 210 205 189 198 216 232 256 280 307 286 324 327 331 335 339 341 338 338 339 340 338 338 340 341
187 179 176 176 177 178 177 172 171 174 173 174 178 185 188 186 178 173 179 211 226 204 203 212 202 211 243 244 201 216 315 322 329 332 337 338 337 337 338 339 338 338 340 339
183 180 179 175 174 178 175 173 173 172 172 179 184 179 176 178 182 188 205 208 195 186 187 195 195 220 228 200 171 209 283 310 318 322 328 331 333 334 334 334 334 335 335 333
181 180 177 176 176 171 165 171 173 174 178 182 183 184 186 187 185 189 209 211 194 196 188 191 205 216 214 176 179 205 250 291 307 315 320 321 320 321 324 326 327 328 326 327
174 173 169 161 154 160 174 179 176 179 182 185 187 185 181 180 191 203 196 185 189 196 197 201 207 210 204 172 188 205 230 261 280 293 306 310 310 312 316 320 322 322 322 324
166 162 159 164 174 183 179 168 165 168 173 183 184 184 186 186 186 192 186 184 187 190 190 203 206 207 189 180 196 207 221 241 254 271 296 307 310 314 315 317 320 320 320 321
168 174 178 183 179 171 167 169 176 181 183 187 191 191 191 187 174 168 178 184 190 192 187 193 204 202 179 188 201 208 216 239 272 281 279 290 298 305 309 314 314 315 315 318
152 157 159 164 172 171 171 176 180 184 186 188 187 187 187 186 185 183 182 185 191 194 190 191 193 192 191 196 201 209 215 224 233 244 262 276 286 293 303 308 310 310 312 316
Height
1598 1595 1594 1593 1593 1593 1596 1597 1600 1589 1586 1583 1585 1588 1591 1593 1595 1595 1594 1592 1590 1587 1584 1580 1576 1571 1565 1558 1551 1544 1537 1530 1524 1518 1511 1504 1497 1490 1484 1477 1470 1462 1454 1445
1599 1594 1594 1592 1588 1590 1591 1590 1589 1584 1582 1578 1580 1585 1589 1591 1592 1592 1591 1590 1588 1586 1582 1579 1574 1569 1563 1557 1550 1544 1537 1530 1524 1517 1511 1504 1497 1491 1484 1477 1471 1464 1456 1447
1604 1599 1592 1586 1579 1584 1583 1580 1579 1579 1576 1578 1581 1583 1585 1588 1589 1589 1588 1587 1586 1584 1581 1577 1573 1568 1562 1556 1550 1543 1537 1530 1524 1517 1511 1504 1498 1492 1485 1478 1472 1466 1459 1451
1612 1603 1592 1577 1574 1575 1575 1571 1570 1569 1570 1573 1576 1580 1583 1585 1586 1586 1586 1586 1584 1582 1580 1576 1572 1568 1562 1556 1549 1543 1536 1530 1524 1517 1511 1505 1499 1493 1486 1480 1474 1468 1462 1455
1615 1608 1596 1577 1572 1572 1574 1569 1563 1565 1568 1573 1575 1579 1582 1582 1583 1584 1584 1584 1582 1580 1578 1575 1571 1566 1561 1555 1549 1542 1536 1530 1524 1518 1512 1506 1500 1494 1488 1482 1477 1471 1465 1459
1617 1608 1594 1570 1569 1568 1572 1570 1558 1559 1564 1569 1574 1580 1577 1578 1580 1581 1582 1581 1580 1578 1576 1574 1570 1565 1560 1554 1548 1542 1536 1531 1525 1519 1513 1507 1502 1496 1491 1485 1480 1474 1469 1463
1613 1611 1587 1567 1567 1570 1575 1561 1553 1555 1558 1563 1567 1569 1571 1574 1577 1578 1579 1579 1578 1576 1574 1572 1568 1564 1559 1554 1548 1543 1538 1532 1526 1520 1514 1509 1503 1498 1493 1487 1482 1477 1472 1467
1613 1612 1585 1562 1564 1565 1557 1550 1551 1553 1556 1560 1563 1566 1568 1571 1574 1576 1577 1576 1576 1574 1573 1570 1567 1564 1559 1554 1549 1544 1539 1533 1527 1521 1515 1510 1504 1499 1494 1489 1484 1479 1474 1469
1584 1569 1551 1551 1548 1548 1547 1548 1549 1551 1555 1558 1560 1563 1566 1568 1571 1573 1574 1574 1574 1573 1571 1569 1566 1562 1558 1554 1549 1545 1540 1534 1528 1523 1517 1511 1505 1499 1494 1490 1485 1480 1476 1472
1569 1552 1545 1545 1544 1544 1544 1545 1547 1549 1552 1555 1557 1560 1563 1566 1568 1570 1571 1571 1571 1571 1569 1567 1565 1561 1557 1553 1549 1545 1540 1534 1529 1523 1518 1512 1506 1500 1495 1490 1486 1482 1478 1474
1559 1545 1540 1536 1536 1537 1540 1542 1544 1547 1550 1552 1555 1557 1560 1562 1565 1567 1568 1569 1569 1568 1567 1565 1563 1560 1557 1553 1549 1545 1540 1535 1529 1524 1519 1514 1508 1503 1497 1492 1489 1484 1479 1475
1544 1533 1534 1531 1531 1532 1534 1536 1539 1543 1546 1549 1552 1554 1557 1559 1562 1564 1565 1566 1566 1566 1565 1563 1561 1559 1556 1552 1548 1544 1539 1535 1530 1525 1520 1515 1510 1505 1500 1494 1489 1484 1480 1476
1528 1527 1527 1526 1526 1527 1529 1532 1536 1539 1543 1545 1548 1551 1554 1556 1559 1561 1563 1563 1564 1564 1563 1561 1559 1557 1555 1551 1548 1543 1539 1535 1530 1525 1520 1515 1510 1505 1500 1495 1491 1485 1479 1475
1522 1522 1521 1520 1521 1523 1525 1529 1533 1537 1540 1543 1545 1548 1551 1554 1556 1558 1560 1561 1561 1561 1560 1559 1557 1555 1553 1550 1547 1543 1539 1535 1530 1525 1521 1516 1511 1506 1501 1495 1490 1485 1480 1475
1513 1514 1515 1515 1516 1518 1521 1525 1528 1532 1535 1538 1541 1544 1547 1550 1552 1555 1557 1558 1558 1558 1558 1557 1555 1554 1551 1549 1546 1542 1538 1534 1529 1525 1521 1516 1511 1506 1501 1496 1491 1486 1481 1476
1505 1506 1507 1508 1510 1512 1515 1518 1521 1525 1529 1533 1536 1539 1543 1547 1549 1551 1553 1555 1555 1556 1555 1555 1553 1552 1550 1547 1545 1541 1538 1533 1529 1524 1520 1515 1510 1505 1500 1496 1491 1486 1481 1476
1497 1496 1498 1500 1502 1504 1506 1510 1514 1519 1524 1528 1532 1536 1539 1542 1545 1547 1549 1551 1552 1553 1553 1552 1551 1550 1548 1546 1543 1540 1537 1533 1529 1524 1520 1514 1509 1504 1499 1494 1490 1485 1481 1476
1485 1487 1491 1493 1494 1497 1500 1505 1510 1515 1519 1524 1528 1531 1534 1536 1539 1543 1545 1547 1548 1549 1549 1549 1548 1547 1546 1544 1542 1540 1536 1533 1529 1524 1520 1514 1509 1504 1499 1494 1489 1484 1479 1475
1476 1479 1483 1486 1489 1492 1495 1499 1504 1510 1515 1519 1522 1525 1528 1532 1536 1539 1541 1543 1544 1545 1546 1546 1546 1545 1544 1543 1541 1539 1536 1533 1529 1525 1520 1515 1510 1505 1499 1493 1488 1483 1478 1474
1469 1472 1476 1479 1483 1486 1489 1494 1499 1504 1509 1514 1517 1521 1524 1528 1531 1534 1536 1538 1540 1542 1542 1542 1542 1542 1542 1541 1539 1537 1535 1532 1529 1525 1520 1516 1510 1505 1499 1494 1488 1482 1477 1472
1462 1465 1468 1472 1476 1480 1484 1488 1493 1498 1503 1507 1511 1514 1518 1522 1526 1528 1531 1533 1536 1537 1538 1539 1539 1539 1539 1538 1537 1536 1534 1531 1528 1524 1520 1516 1511 1505 1500 1494 1488 1482 1477 1471
1455 1457 1461 1465 1469 1473 1477 1482 1487 1493 1497 1501 1506 1510 1514 1517 1520 1523 1526 1529 1532 1533 1534 1535 1535 1536 1536 1535 1535 1533 1532 1530 1527 1524 1520 1515 1510 1505 1500 1494 1489 1483 1477 1471
1448 1451 1454 1458 1462 1467 1472 1476 1481 1486 1491 1495 1499 1503 1506 1510 1513 1517 1520 1524 1526 1528 1530 1531 1531 1532 1532 1532 1532 1531 1529 1528 1525 1522 1519 1515 1510 1505 1500 1495 1489 1483 1477 1471
1440 1444 1448 1452 1457 1461 1465 1469 1475 1481 1486 1491 1494 1498 1501 1505 1508 1512 1516 1519 1521 1523 1525 1526 1527 1528 1528 1528 1528 1528 1527 1525 1523 1520 1517 1514 1509 1505 1500 1494 1489 1483 1477 1470
1433 1437 1441 1445 1448 1452 1458 1464 1470 1475 1479 1484 1488 1492 1495 1499 1503 1506 1510 1513 1515 1518 1520 1521 1522 1523 1524 1524 1524 1524 1523 1522 1520 1518 1515 1512 1508 1504 1499 1493 1488 1482 1476 1469
1426 1430 1433 1437 1442 1446 1451 1456 1461 1466 1471 1476 1480 1484 1488 1492 1496 1500 1504 1507 1509 1512 1514 1516 1517 1518 1519 1520 1520 1520 1519 1518 1517 1515 1512 1509 1506 1502 1497 1492 1487 1481 1475 1468
1420 1424 1427 1432 1436 1440 1445 1449 1454 1459 1464 1469 1473 1477 1481 1485 1489 1492 1496 1499 1502 1505 1507 1509 1511 1512 1514 1514 1515 1515 1515 1514 1513 1511 1509 1506 1503 1499 1495 1490 1485 1479 1473 1467